[[{"header":{"parameterUnit":"m.s-1","parameterCategory":1,"la1":30.2992,"la2":30.254,"lo1":-89.0895,"lo2":-89.0443,"dy":0.0025,"dx":0.0025,"nx":19,"ny":19,"refTime":"2026-05-24T03:00:00:Z","depth":0,"parameterNumber":2,"parameterNumberName":"U-component_of_WINDS"},"data":[0,0,0,-3.9027,-3.9027,-3.8987,-3.8987,-3.8947,-3.8946,0,0,0,0,0,0,0,0,0,0,0,-3.9047,-3.9047,-3.9027,-3.9026,-3.8987,-3.8987,-3.8947,-3.8946,0,0,0,0,0,0,0,0,0,0,0,-3.9047,-3.9047,-3.9047,-3.9026,-3.8987,-3.8987,-3.8947,-3.8972,0,0,0,0,0,0,0,0,0,0,-3.9008,-3.9035,-3.9047,-3.9047,-3.9026,-3.8987,-3.8987,-3.8973,-3.8971,-3.8969,0,-3.8972,0,-3.8959,-3.8944,-3.8944,0,0,0,-3.9019,-3.9038,-3.902,-3.9047,-3.9026,-3.8988,-3.9003,-3.8972,-3.8969,-3.8966,-3.8972,-3.897,-3.8958,-3.8944,-3.8944,-3.8965,-3.8965,0,0,-3.9022,-3.9044,-3.9022,-3.9019,-3.9028,-3.9004,-3.9002,-3.897,-3.8977,-3.8972,-3.8969,-3.8958,-3.8944,-3.8944,-3.8964,-3.8965,0,0,0,-3.9033,-3.9046,-3.9028,-3.9021,-3.9013,-3.9003,-3.9001,-3.8978,-3.8971,-3.8968,-3.8957,-3.8944,-3.8944,-3.8964,-3.8965,-3.9007,0,0,0,-3.9034,-3.9052,-3.903,-3.9043,-3.9014,-3.8995,-3.901,-3.8973,-3.8969,-3.8957,-3.8944,-3.8943,-3.8963,-3.8964,-3.9004,-3.9022,0,0,0,-3.9047,-3.9053,-3.9051,-3.9044,-3.9028,-3.8995,-3.8986,-3.8971,-3.8962,-3.8944,-3.8943,-3.8963,-3.8964,-3.9002,-3.9018,-3.9032,0,0,0,-3.9066,-3.9088,-3.9052,-3.9072,-3.9029,-3.9023,-3.8986,-3.898,-3.897,-3.8944,-3.8963,-3.8964,-3.9002,-3.9016,-3.9031,-3.9047,-3.9057,0,0,-3.9106,-3.9094,-3.9104,-3.907,-3.9077,-3.9027,-3.9039,-3.9008,-3.8985,-3.8972,-3.8972,-3.9005,-3.9018,-3.9032,-3.9107,-3.9115,0,0,0,-3.9123,-3.9131,-3.9128,-3.912,-3.9099,-3.9081,-3.9046,-3.9034,-3.9023,-3.8984,-3.9014,-3.9021,-3.9029,-3.9035,-3.9042,-3.9045,-3.8969,-3.8969,-3.8969,-3.9209,-3.9181,-3.9195,-3.9162,-3.9155,-3.9119,-3.911,-3.9088,-3.906,-3.9068,-3.9063,-3.9112,-3.9121,-3.9125,-3.913,-3.9071,-3.9071,-3.9071,-3.9072,-3.9262,-3.9267,-3.9232,-3.9232,-3.9201,-3.9201,-3.9167,-3.9148,-3.9141,-3.9113,-3.9118,-3.9088,-3.9135,-3.9137,-3.9074,-3.9074,-3.9074,-3.9073,-3.9073,-3.9313,-3.931,-3.9298,-3.9284,-3.9277,-3.9242,-3.9238,-3.921,-3.9183,-3.9188,-3.9179,-3.9178,-3.9171,-3.9186,-3.9186,-3.9187,-3.9187,-3.9187,-3.9187,-3.937,-3.9354,-3.9355,-3.9336,-3.9327,-3.9312,-3.9277,-3.9267,-3.9248,-3.9228,-3.9228,-3.9197,-3.9146,-3.9133,-3.9189,-3.9189,-3.9189,-3.9188,-3.9188,-3.943,-3.9413,-3.9414,-3.9406,-3.938,-3.9373,-3.9339,-3.9321,-3.9308,-3.9306,-3.9276,-3.9244,-3.9228,-3.9223,-3.9211,-3.9284,-3.9284,-3.9284,-3.9284,-3.9472,-3.9462,-3.9458,-3.9446,-3.9432,-3.9401,-3.9401,-3.9374,-3.9342,-3.9332,-3.9318,-3.9301,-3.9297,-3.9284,-3.9277,-3.9265,-3.9351,-3.9351,-3.9351,-3.9506,-3.9495,-3.9501,-3.9473,-3.9451,-3.9431,-3.943,-3.9415,-3.9376,-3.9353,-3.9323,-3.932,-3.9293,-3.9286,-3.9259,-3.9249,-3.9227,0,0]},{"header":{"parameterUnit":"m.s-1","parameterCategory":1,"la1":30.2992,"la2":30.254,"lo1":-89.0895,"lo2":-89.0443,"dy":0.0025,"dx":0.0025,"nx":19,"ny":19,"refTime":"2026-05-24T03:00:00:Z","depth":0,"parameterNumber":3,"parameterNumberName":"V-component_of_WINDS"},"data":[0,0,0,4.0201,4.0201,4.018,4.018,4.0172,4.0172,0,0,0,0,0,0,0,0,0,0,0,4.0221,4.0222,4.0201,4.0201,4.018,4.018,4.0172,4.0172,0,0,0,0,0,0,0,0,0,0,0,4.0221,4.0222,4.0222,4.0201,4.018,4.018,4.0172,4.0181,0,0,0,0,0,0,0,0,0,0,4.0198,4.023,4.0222,4.0222,4.0201,4.018,4.018,4.0181,4.018,4.0191,0,4.0205,0,4.0189,4.0173,4.0173,0,0,0,4.0191,4.0231,4.0213,4.0222,4.0201,4.018,4.0187,4.018,4.018,4.019,4.0205,4.0204,4.0189,4.0173,4.0173,4.0271,4.0272,0,0,4.0192,4.0225,4.0213,4.0213,4.022,4.0188,4.0186,4.018,4.0197,4.0205,4.0203,4.0189,4.0173,4.0174,4.027,4.0271,0,0,0,4.0202,4.0226,4.0208,4.0214,4.0209,4.0187,4.0186,4.0198,4.0189,4.0203,4.0189,4.0174,4.0174,4.0269,4.027,4.0348,0,0,0,4.0203,4.0232,4.0209,4.0229,4.0209,4.0203,4.0204,4.0189,4.0188,4.0189,4.0174,4.0174,4.0268,4.0269,4.0344,4.0379,0,0,0,4.0218,4.0234,4.0235,4.023,4.0223,4.0203,4.0193,4.0188,4.0179,4.0173,4.0174,4.0267,4.0269,4.034,4.0373,4.0413,0,0,0,4.0244,4.0306,4.0237,4.03,4.0223,4.0252,4.0193,4.0213,4.0217,4.0174,4.0268,4.027,4.0338,4.0369,4.0409,4.0452,4.0474,0,0,4.034,4.0319,4.0353,4.0291,4.0341,4.0253,4.0312,4.0285,4.0255,4.0266,4.0268,4.0345,4.0372,4.0412,4.0584,4.0602,0,0,0,4.0395,4.042,4.0426,4.0432,4.0413,4.0398,4.0358,4.0347,4.0356,4.0268,4.037,4.0385,4.0407,4.0426,4.0441,4.0457,4.0281,4.028,4.028,4.0578,4.0535,4.0588,4.0543,4.0549,4.0506,4.0506,4.0484,4.044,4.0464,4.0467,4.0577,4.0601,4.0612,4.0629,4.0487,4.0488,4.0488,4.0488,4.0714,4.0742,4.068,4.0709,4.0663,4.0686,4.0647,4.0614,4.0627,4.0572,4.0589,4.0531,4.0632,4.0644,4.0494,4.0493,4.0492,4.0492,4.0491,4.0828,4.0834,4.082,4.0823,4.0829,4.0779,4.0795,4.0752,4.0712,4.0729,4.0726,4.0724,4.0716,4.0731,4.0731,4.0731,4.0732,4.0732,4.0732,4.0952,4.0934,4.0953,4.0937,4.0933,4.0924,4.088,4.0875,4.0858,4.0825,4.0825,4.0776,4.0651,4.0619,4.0738,4.0737,4.0736,4.0736,4.0735,4.1104,4.1062,4.1092,4.1089,4.1065,4.1072,4.1017,4.101,4.0999,4.1008,4.0955,4.087,4.0844,4.0832,4.0806,4.0965,4.0965,4.0965,4.0966,4.1199,4.1182,4.1202,4.1199,4.1191,4.1144,4.1176,4.1141,4.1099,4.1089,4.1059,4.1021,4.1011,4.0991,4.0975,4.095,4.1143,4.1143,4.1143,4.1289,4.1269,4.1306,4.1265,4.1242,4.1223,4.1251,4.1248,4.1191,4.1149,4.1079,4.1072,4.1009,4.0992,4.0949,4.0926,4.0878,0,0]}]]